Regional Weather Roundup
Issued by NWS Lake Charles, LA

Home | Current Version | Previous Version | Text Only | Print | Product List | Glossary On
Versions: 1 2 3 4 5 6 7 8 9 10 11 12 13 14 15 16 17 18 19 20 21 22 23 24 25 26 27
000
ASUS44 KLCH 221910
RWRLCH
REGIONAL WEATHER ROUNDUP
NATIONAL WEATHER SERVICE LAKE CHARLES LA
200 PM CDT TUE MAY 22 2018

Note: "fair" indicates few or no clouds below 12,000 feet with no
significant weather and/or obstructions to visibility.


ACROSS SOUTHEAST TEXAS

CITY           SKY/WX    TMP DP  RH WIND       PRES   REMARKS
BEAUMONT       TSTM      79  71  76 VRB7      29.99S
BEAUMONT CITY  TSTM      76  69  77 E7        30.00F
ORANGE         LGT RAIN  75  69  80 SW7       30.00F
JASPER         PTSUNNY   88  68  51 CALM      30.01F
$$

ACROSS CENTRAL LOUISIANA

CITY           SKY/WX    TMP DP  RH WIND       PRES   REMARKS
LEESVILLE      PTSUNNY   91  65  41 W7        29.97F
FULLERTON      MOCLDY    89  67  47 CALM      29.96F
ALEXANDRIA INT FAIR      92  66  42 VRB6      29.96F
ESLER FIELD    FAIR      92  67  43 SW9       29.98F
DERIDDER       MOCLDY    89  61  38 CALM      30.01F
OAKDALE        FAIR      88  68  51 SE3       29.98F
OPELOUSAS      MOCLDY    89  67  47 NE3       29.99F
$$

ACROSS SOUTHWEST AND SOUTH CENTRAL LOUISIANA

CITY           SKY/WX    TMP DP  RH WIND       PRES   REMARKS
SULPHUR        MOCLDY    89  67  49 SE8       29.99F
LAKE CHARLES   FAIR      88  71  57 S7        29.98F
CHENNAULT INT  MOSUNNY   88  66  48 E6        29.98F
CAMERON PHI    CLEAR     84  72  65 S12       30.00F
DEQUINCY       FAIR      87  65  46 CALM      29.99F
JENNINGS       CLOUDY    87  66  49 SW5       29.98F
LAFAYETTE      FAIR      91  68  46 S6        29.99F
NEW IBERIA     LGT RAIN  81  71  71 S9        30.01F
ABBEVILLE      MOCLDY    86  73  64 SE13G18   30.00S
PATTERSON      FAIR      88  70  55 S7        30.00F
SALT POINT       N/A    N/A N/A N/A VRB7      29.99F
$$

SELECTED SITES ACROSS THE REGION

CITY           SKY/WX    TMP DP  RH WIND       PRES   REMARKS
HOUSTON BUSH   PTSUNNY   88  72  58 N8        29.97F
HOUSTON HOBBY  FAIR      83  72  69 SE6       29.97F
GALVESTON      FAIR      86  73  65 E13       30.00F
COLLEGE STAT   PTSUNNY   85  70  60 SW8       29.98F
CONROE         MOSUNNY   88  67  49 E6        29.99F
HUNTSVILLE     MOSUNNY   88  64  44 CALM      29.99F
LUFKIN         MOSUNNY   87  67  51 VRB3      29.99F
SHREVEPORT     PTSUNNY   86  70  58 NE5       29.98F
MONROE         FAIR      88  74  63 N6        29.98F
NATCHEZ MS     FAIR      87  68  52 N6        30.00F
BATON ROUGE    FAIR      89  66  46 CALM      29.99F
N.O. INTL ARPT PTSUNNY   88  71  57 SE8       30.00F
SLIDELL        PTSUNNY   85  73  67 S6        30.00F
$$

MARINE REPORTS

STATION/POSITION TIME  SKY/WX   TEMP    WIND        PRES    VSBY
                                AIR SEA DIR/SP/G
                 (UTC)          (F)     (DEG/KT/KT) (MB)    (MI)
BUOY 30 S HIGH I NOT AVBL
SEA RIM ST PARK  1900            83     140/ 10/ 13 1016.0F
PORT ARTHUR      1848            85 84  100/  7/ 11 1015.7F
SABINE PASS N    1848            83 87  150/ 11/ 13 1017.2F
TEXAS POINT      NOT AVBL
CALCASIEU PASS   1848            82 84  200/ 10/ 12 1015.1F
LK CHARLES BEACH 1848            86 83              1015.0F
MARSH ISLAND     1800            82                   N/A
FRESH WATER LOCK 1848            83 87  110/  8/ 12 1016.1F
AMERADA PASS     1848            85 81  200/  3/  5 1016.2F
$$




USA.gov is the U.S. government's official web portal to all federal, state and local government web resources and services.